NapervilleWeather.com

Find the Weather for any City, State  
or Zipcode, or Country:

Naperville, IL Weather
Local Radar

Local Radar

Graphs, Details
Graphs and Gauges
Detailed Weather
Detailed Reports
Ajax Version (old)
Davis Summary
Davis Current Weather Graphs
Davis 24 Hour Weather History
Cumulus

CW7164 Data

Weather Underground
www.awekas.at
Automatic Weather Map System
Latest Naperville, Illinois, weather
Weather For You
Maps
Temperature
Heat Index
Windchill
Humidity
Radar
Dew Point
Wind
Visibility
Visible Satellite
Satellite
Fronts
Snow Depth
Jet Stream
Flight Rules
Forecast Maps
Temperature Forecast
Maximum Temperature Forecast
Minimum Temperature Forecast
Dewpoint Forecast
Prevalent Weather
12Hr Probability of Precip.
Sky Cover
Health Maps
UV Forecast
Air Quality
Peak Air Quality Index
Weather Station
Davis Instruments Vantage Pro2
Current Conditions [Select Refresh to Update]

Updated: 3:44am on 10/25/14

(location)
Currently:
53.6°F

Clear
Overcast

High: 57.5 °F< 
(12:59am
Low: 53.3 °F 
(3:22am)
Wind: NNW 0 mph
Calm
Gust: 0 mph
Today's High Wind: 0 mph (12:00am)
Humidity: 92%
Pressure: 29.92 in  (Steady
Pressure Rate: 0.006 in/hr
Dew Point: 51.3°F
Wind Chill: 53.6 °F
Heat Index (feels like): 59.5 °F
Comfort Level: Cool
Temperature Rate:  -1.10°F/hr
 
5 Day Forecast
 
Sat Sun Mon Tue Wed
Clear Clear Clear Clear Clear
Partly Cloudy Partly Cloudy Partly Cloudy Partly Cloudy Partly Cloudy
70 64 75 63 55
41 52 57 39 39

Records and Normals
 
Temperature Forecast Normal Record
High 70 0 0
(0)
Low 41 0 0
(0)
 
 
Weather Advisories
No Warnings
Full Advisory Text...
Weather Map

Web Cam

Almanac
 
Sunrise:  
7:18am
Moonrise: 
8:56am

Moon Phase:
2%

Sunset: 
5:57pm
Moonset:  
7:18pm
 Star Chart...
Rainfall Totals
Hourly Rain 0.00 in
Daily Rain: 0.00 in
Monthly Rain: 2.46 in
Yearly Rain: 32.35 in
Normal Rain, month to date: 0.00 in
Normal Rain, year to date: 0.00 in
Local Weather Exchange Network
Station ID City 
(Click for Map Location)
Neighborhood 
(Click for History)
Last Update (Date & Time) Temperature
 ()
Dew
Point ()
Humidity 
(%)
Wind 
(mph)
from the Wind Gust 
(mph) 
Pressure(in) Hourly
Rain(in)
KILNAPER15 Naperville Indian Hill Near Jefferson JHS 10/25 03:39:54 54.6 51.0 89 1 SW 3 29.89 0.00
KILNAPER25 Naperville brushhill-w 10/25 03:35:07 54.4 51.0 89 0 West 2 29.88 0.00
KILNAPER24 Naperville Brush Hill 10/25 03:34:01 55.0 52.0 90 0 SSW 0 29.84 0.00
KILNAPER19 Naperville Brookdale Lakes 10/25 03:40:00 55.0 52.0 90 0 West 1 29.88 0.00
KILNAPER7 Naperville NapervilleWeather.com Near Ogden and Naper Blvd 10/25 03:40:01 53.6 51.0 92 0 NNW 0 29.92 0.00
KILWARRE2 Warrenville Warrenville Neighborhood Weather 10/25 03:40:00 54.3 52.0 92 1 West 3 29.88 0.00
KILNAPER23 Naperville Naper Blvd at BNSF RR 10/25 03:40:00 51.6 50.0 95 0 SW 0 29.91 0.00
KILNAPER9 Naperville 75th St. / Modaff Area 10/25 03:39:55 51.2 50.0 95 0 SE 0 29.89 0.00
KILWHEAT8 Wheaton Wheaton Sanitary District 10/25 03:39:28 55.4 54.0 93 0 SW 6 29.89 0.00
KILWHEAT11 Wheaton Wheaton SW Orth Ct 10/25 03:39:57 56.3 50.0 79 0 NNE 0 30.01 0.00
KILLOMBA6 Wheaton Danada West 10/25 03:39:09 55.2 51.0 85 3 WSW 5 29.94 0.00
KILNAPER16 Naperville SE Naperville / NE Clow Arpt 10/25 03:40:00 54.3 51.0 90 2 West 6 29.91 0.00
KILNAPER22 Naperville Willow Ridge 10/25 03:30:51 52.3 51.0 94 0 SW 0 29.73 0.00
KILWHEAT5 Wheaton N9ABF - West Wheaton 10/25 03:38:36 54.1 50.0 87 0 SSW 0 29.88 0.00
KILGLENE9 Glen Ellyn Valley View 10/25 03:27:27 50.7 50.0 99 0 West 0 29.78 0.00
KILWINFI2 Winfield Winfield Heights (SarahNet) 10/25 03:28:51 54.5 50.0 85 0 SW 0 29.89 0.00
KILWOODR4 Woodridge Woodridge Neighborhood Weather 10/25 03:36:31 54.5 50.0 84 0 WSW 1 29.89 0.00
KILWINFI3 Winfield Fredericksburg Farm 10/25 03:39:44 54.4 52.0 90 0 East 3 29.81 0.00
KILWHEAT10 Wheaton Wheaton College 10/25 03:35:16 55.5 52.0 87 6 West 10 29.88 0.00
KILWOODR2 Woodridge Woodridge 10/25 03:39:59 55.9 52.0 88 4 SW 4 29.78 0.00
KILWOODR1 Woodridge 75th Street/ Janes Ave 10/25 03:39:59 56.8 54.0 89 1 NE 2 29.14 0.00
KILBATAV5 Batavia Fermi National Accelerator Laboratory 10/25 03:27:55 54.6 52.0 89 7 WSW 9 29.85 0.00
KILBOLIN15 Bolingbrook Winding Meadows 10/25 03:40:00 53.8 -1.0 0 2 WSW 4 29.92 0.00
KILBOLIN20 Bolingbrook Bolingbrook - Royce Road 10/25 03:39:49 59.1 51.0 76 1 SSE 2 29.25 0.00
KILDOWNE3 Downers Grove Maple Woods West 10/25 03:39:59 57.0 56.0 95 3 WNW 3 29.95 0.00
KILBOLIN12 Bolingbrook UnderTheThunder HQ 10/25 03:39:52 53.8 51.0 90 1 WNW 2 29.90 0.00
KILBOLIN13 Bolingbrook UnderTheThunder.org Van 10/25 03:36:15 52.1 50.0 94 0 East 0 29.86 0.00
KILAUROR22 Aurora Lakewood Valley 10/25 03:27:49 52.7 52.0 97 0 WNW 0 29.67 0.00
KILWOODR6 Woodridge Kelly Court 10/25 03:35:54 57.0 50.0 77 0 North 0 29.91 0.00
KILNAPER4 Naperville 1.1 mi.West. of Rt 59 & 103rd St. 10/25 03:39:21 53.3 50.0 89 0 North 0 29.82 0.00
KILCHICA63 Glen Ellyn Glen Ellyn Neighborhood Weather 10/25 03:39:59 58.5 0.0 0 0 North 0 0.00 0.00
KILAUROR23 Aurora Summerlin 10/25 03:38:53 54.7 52.0 92 4 West 0 29.74 0.00
KILGLENE7 Glen Ellyn Glen Ellyn Civic Center 10/25 03:33:45 56.6 53.0 86 4 WNW 13 29.94 0.00
KILDOWNE6 Downers Grove DGMidTown 10/25 03:39:39 54.9 51.0 87 3 NNW 0 29.79 0.00
KILDOWNE8 Downers Grove Oak Creek 10/25 03:31:34 52.0 49.0 89 0 West 0 29.80 0.00
KILBOLIN8 Bolingbrook Bolingbrook Neighborhood Weather 10/25 03:39:58 54.0 51.0 90 2 West 4 29.92 0.00
KILBOLIN16 Bolingbrook Huntington Estates 10/25 03:39:34 54.5 51.0 89 4 WNW 5 29.89 0.00
KDPA Chicago DuPage Official Station 10/25 03:28:00 56.0 51.0 84 6 West --- 29.91 ---
KLOT Romeoville Official Station 10/25 03:15:00 54.0 51.0 89 7 WSW --- 29.90 ---
KARR Aurora Official Station 10/25 03:08:00 51.0 48.0 89 6 West --- 29.92 ---
Full Advisory Text
No Warnings

Ambient Weather and Weather Underground
 Never base important decisions on this or any weather information obtained from the Internet
Updated Automatically by Ambient Weather's Virtual Weather Station  V14.01